Weather History for Big Piney, WY

Change the Weather History Date:

Friday, November 2, 2012

  Actual Average Record
Temperature  
Mean Temperature 36 °F 31 °F  
Max Temperature 51 °F 46 °F 62 °F (2010)
Min Temperature 20 °F 16 °F -7 °F (2003)
Degree Days  
Heating Degree Days 29 34  
Month to date heating degree days 54 67  
Since 1 July heating degree days 1184 1647  
Cooling Degree Days 0 0  
Month to date cooling degree days 0 0  
Year to date cooling degree days 67 35  
Moisture  
Dew Point 21 °F    
Average Humidity 58    
Maximum Humidity 88    
Minimum Humidity 27    
Precipitation  
Precipitation 0.00 in 0.01 in 0.27 in (1987)
Month to date precipitation 0.00 0.02  
Year to date precipitation 2.50 5.99  
Sea Level Pressure  
Sea Level Pressure 30.10 in    
Wind  
Wind Speed 7 mph (NNW)    
Max Wind Speed 14 mph    
Max Gust Speed 20 mph    
Visibility 10 miles    
Events      
T = Trace of Precipitation, MM = Missing Value Source: NWS Daily Summary

Daily Weather History Graph

Daily Weather History Graph

Search for Another Location

Airport:

Trip Planner

Search our weather history database for the weather conditions in past years. The results will help you decide how hot, cold, wet, or windy it might be!

Date:

Astronomy

Nov. 02, 2012 Rise Set
Actual Time 7:56 AM MDT 6:11 PM MDT
Civil Twilight 7:26 AM MDT 6:40 PM MDT
Nautical Twilight 6:53 AM MDT 7:14 PM MDT
Astronomical Twilight 6:20 AM MDT 7:46 PM MDT
Moon 8:58 PM MDT (11/2) 11:21 AM MDT (11/2)
Length of Visible Light 11h 14m
Length of Day
10h 15m
Waning Gibbous, 87% of the Moon is Illuminated
Nov 2
Waning Gibbous
Nov 6
Last Quarter
Nov 13
New
Nov 20
First Quarter
Nov 28
Full

Hourly Weather History & Observations

Time (MDT) Temp. Windchill Dew Point Humidity Pressure Visibility Wind Dir Wind Speed Gust Speed Precip Events Conditions
12:53 AM 37.9 °F 33.5 °F 28.9 °F 70% 30.00 in 10.0 mi NNW 5.8 mph - N/A   Mostly Cloudy
1:53 AM 34.0 °F - 28.0 °F 79% 30.01 in 10.0 mi Calm Calm - N/A   Partly Cloudy
2:53 AM 30.0 °F - 25.0 °F 82% 30.02 in 10.0 mi Calm Calm - N/A   Clear
3:53 AM 28.0 °F 22.8 °F 24.1 °F 85% 30.02 in 10.0 mi NNE 4.6 mph - N/A   Clear
4:53 AM 28.9 °F 22.8 °F 23.0 °F 78% 30.04 in 10.0 mi North 5.8 mph - N/A   Clear
5:53 AM 26.1 °F 17.6 °F 21.0 °F 81% 30.08 in 10.0 mi NNW 8.1 mph - N/A   Clear
6:53 AM 23.0 °F 13.1 °F 19.0 °F 85% 30.12 in 10.0 mi North 9.2 mph - N/A   Clear
7:53 AM 21.9 °F 14.5 °F 18.0 °F 85% 30.13 in 10.0 mi South 5.8 mph - N/A   Clear
8:53 AM 28.0 °F 22.8 °F 21.9 °F 78% 30.13 in 10.0 mi West 4.6 mph - N/A   Clear
9:53 AM 34.0 °F - 24.1 °F 67% 30.12 in 10.0 mi Calm Calm - N/A   Clear
10:53 AM 42.1 °F 40.2 °F 25.0 °F 51% 30.08 in 10.0 mi Variable 3.5 mph - N/A   Clear
11:53 AM 46.0 °F 41.4 °F 21.9 °F 39% 30.06 in 10.0 mi NNW 9.2 mph - N/A   Clear
12:53 PM 48.9 °F - 21.0 °F 33% 30.05 in 10.0 mi NNW 8.1 mph - N/A   Clear
1:53 PM 50.0 °F - 19.9 °F 31% 30.05 in 10.0 mi Variable 3.5 mph 17.3 mph N/A   Clear
2:53 PM 51.1 °F - 19.0 °F 28% 30.04 in 10.0 mi NNW 13.8 mph 19.6 mph N/A   Clear
3:53 PM 50.0 °F - 18.0 °F 28% 30.06 in 10.0 mi North 13.8 mph - N/A   Clear
4:53 PM 48.9 °F - 18.0 °F 29% 30.07 in 10.0 mi North 12.7 mph - N/A   Clear
5:53 PM 45.0 °F 40.1 °F 19.0 °F 36% 30.11 in 10.0 mi North 9.2 mph - N/A   Clear
6:53 PM 36.0 °F 28.0 °F 19.9 °F 52% 30.19 in 10.0 mi North 11.5 mph - N/A   Clear
7:53 PM 30.0 °F 20.5 °F 19.0 °F 64% 30.25 in 10.0 mi NNW 11.5 mph - N/A   Clear
8:53 PM 30.0 °F 22.4 °F 19.9 °F 66% 30.23 in 10.0 mi NNW 8.1 mph - N/A   Clear
9:53 PM 28.9 °F 21.9 °F 19.9 °F 69% 30.20 in 10.0 mi NW 6.9 mph - N/A   Clear
10:53 PM 28.9 °F - 19.0 °F 67% 30.17 in 10.0 mi Calm Calm - N/A   Clear
11:53 PM 26.1 °F - 19.0 °F 75% 30.18 in 10.0 mi Calm Calm - N/A   Clear